Location: Newark
(36.2350°N, 59.6408°E)
Time: 18:07:16
(UTC+00:00)

ISS - Pass Details

Date: 20 November 2019
Orbit: 411 x 421 km, 51.6° (Epoch: 08 December)

Event Time Altitude Azimuth Distance (km) Brightness Sun altitude
Rises 14:17:15 0° 214° (SW) 2,338 0.8 -17.4°
Reaches altitude 10° 14:19:22 10° 208° (SSW) 1,482 -0.5 -17.8°
Enters shadow 14:22:29 45° 139° (SE) 580 -3.3 -18.4°
